Timeline UpdatesTrip UpdatesNews PostsPvt PostsTravel TipsAdmin PostsConv PostsFollowed PostsChat RequestsBlog PostsPNR Posts

Disclaimer
Search
 
 
Sun Apr 20, 2014 03:46:52 ISTHomeTrainsΣChainsAtlasPNRForumGalleryNewsFAQTripsMembersLoginFeedback
No Recent News for this Train
Other Trains in the News **new
Latest...
..
Mon Dec 30, 2013 (12:02AM)
⇐ Return Journey: Train# 19040

19039/Avadh Express

Feb 25 2014 (9:43PM)
Change Departure Station:
Change Arrival Station:
Post a Train Travel TipPost a Train Travel Tip **new
Post a Comment/Question/Picture/VideoPost a Comment/Question/Picture/Video
Pantry/Catering
✓ Pantry Car Avbl
✓ Catering Avbl
Loco/Rake Reversals
LJN/Lucknow Junction (6);
RSA - Rake Sharing
19037/19038 have RSA with 19039/19040.
Rake/Coach Composition
LOCO-SLR-S15-S14-S13-S12-S11-S10-S9-S8-S7-S6-S5-S4-S3-S2-S1-PC-B2-B1-A1-GEN-GEN-SLR; Engine reverses at Lucknow
Loco
BDTS-LJN: BRC WAP-4 LJN-MFP: GD WDM-3A
News    PNR    Forum    Time-Table    Availability    Fare Chart    Map    Arr/Dep History    Trips    Gallery    ΣChains    X/O    Timeline    
Travel Time: 9h 14m    16 halts    Distance: 335 km    Avg Speed: 36 km/hr
Type: Mail/Express
Zone: WR/Western
Departs @ 12:36 (Avg 42m late)
Platform# ???
 M W  S
Maghar/MHH 
Arrives @ 21:50 (Avg 1h 41m late)
Platform# 2
 M W  S
Muzaffarpur Junction/MFP 

16 halts. 56 intermediate Stations between Maghar and Muzaffarpur Junction

Show ALL intermediate Stations  Show Old Time-Table

#CodeStation NameX/OArrivesAvgDepartsAvgHaltPFDay#KmSpeedElevZoneAddress
1BDTSMumbai Bandra Terminus (5)  -22:40+021-1819.1234mWRMumbai 400050, Maharashtra
2ADHMumbai Andheri (9)  22:56+322:58+32m81-1813.04212mWRMumbai, Maharashtra
3BVIMumbai Borivali (8)  23:16+623:18+92m61-1800.46719mWRMumbai - 400092, Maharashtra
4BORBoisar (3)  00:19+1600:21+172m22-1732.25917mWRBoisar Tel.no-02525-266626, Maharashtra
5VAPIVapi (3)X01:33+901:35+92m12-1661.96827mWRVapi, Gujarat
6BLValsad (3)X  01:58+702:00+82m22-1635.76515mWRValsad, Gujarat
7STSurat (4)  03:03+103:08+25m12-1567.06519mWRSurat 395001, Gujarat
8AKVAnkleshwar Junction (4)X  03:54+1103:56+122m12-1517.07319mWRAnkleshwar, Gujarat
9BRCVadodara Junction (7)XO  05:02+1205:12+1210m32-1437.27036mWRVadodara, Gujarat
10GDAGodhra Junction (3)  06:15+1306:18+123m--2-1363.380122mWRGodhra, Gujarat
11DHDDahod (3)  07:13+3107:15+312m--2-1290.290313mWRDahod, Gujarat
12MGNMeghnagar (3)X  07:37+3807:39+382m--2-1257.174317mWRJhabua, Madhya Pradesh
13BMIBamnia (2)X  08:08+3908:10+402m--2-1221.534392mWRBamnia, Madhya Pradesh
14RTMRatlam Junction (7)  09:30+1009:50+1120m--2-1176.875495mWRRatlam, Madhya Pradesh
15KUHKhachrod (2)X  10:12+1610:14+162m--2-1149.120497mWRUjjain, Madhya Pradesh
16NADNagda Junction (4)X  10:55+411:00+85m--2-1135.373468mWRNagda, Madhya Pradesh
17MEPMahidpur Road  11:14+1611:16+162m--2-1118.384493mWCRGogapur, Madhya Pradesh
18VMAVikramgarh Alot (2)X  11:33+1611:35+162m22-1094.473443mWCRKota Division, Madhya Pradesh
19CMUChau Mahla (3)  11:53+1911:55+192m22-1072.671426mWCRJhalawar, Rajasthan
20SVASuwasra (2)  12:08+2012:10+212m--2-1057.262450mWCRSuwasra, Madhya Pradesh
21SGZShamgarh (3)X  12:23+2412:25+242m--2-1043.881463mWCRMandsaur, Madhya Pradesh
22GOHGaroth (2)  12:33+2812:35+282m22-1032.976441mWCRMadhya Pradesh 458880, Madhya Pradesh
23BWMBhawani Mandi (3)  12:53+2612:55+262m--2-1010.376384mWCRBhawani Mandi, Madhya Pradesh
24JHWJhalawar Road (3)  13:08+2813:10+272m--2-993.874361mWCRJhalawar City, Rajasthan
25RMARamganj Mandi Junction (3)  13:20+2713:22+272m--2-981.454358mWCRRamganj Mandi, Rajasthan
26MKXMorak (2)  13:32+2813:34+282m--2-972.481337mWCRMorak, Rajasthan
27DKNTDakaniya Talav (2)X  14:13+3114:15+312m12-919.522278mWCRKota, Rajasthan
28KOTAKota Junction (5)X  14:40+2114:50+2210m12-910.2110256mWCRKota, Rajasthan
29LKELakheri (3)X  15:23+4215:25+422m--2-849.666228mWCRBundi, Rajasthan
30IDGIndargarh Sumerganj Mandi (2)  15:35+4415:37+442m--2-838.645247mWCRIndargarh, Rajasthan
31SWMSawai Madhopur Junction (4)X  16:25+2916:30+275m--2-802.372266mWCRSawai Madhopur, Rajasthan
32GGCGangapur City (3)X  17:23+2317:25+262m--2-738.482270mWCRGangapur, Rajasthan
33SMBJShri Mahabirji (3)  17:50+3617:52+362m--2-704.361240mWCRKarauli, Rajasthan
34HANHindaun City (2)X  18:02+3518:04+362m--2-694.225230mWCRKarauli, Rajasthan
35BXNBayana Junction (3)  19:23+719:25+112m--2-661.347198mWCRBayana, Rajasthan
36RBSRupbas (2)X  20:09+720:11+182m--2-627.143178mNCRJAGNER ROAD, Rajasthan
37FTSFatehpur Sikri (2)  20:31+1420:33+212m--2-612.950176mNCRAgra, Uttar Pradesh
38KLBKiraoli (1)X  20:48+2120:50+212m12-600.636174mNCRKiraoli, Uttar Pradesh
39IDHIdgah Agra Junction (3)  21:26+2621:28+362m--2-578.98168mNCRAgra, Uttar Pradesh
40AFAgra Fort (3)  21:45+3621:55+4710m12-576.815170mNCRRakabganj, Uttar Pradesh
41TDLTundla Junction (4)XO  23:25+1:0123:35+1:0510m32-553.833167mNCRDistt.Firozabad, Uttar Pradesh
42FZDFirozabad (4)X  00:05+5500:07+1:032m23-537.357164mNCRFirozabad, Uttar Pradesh
43SKBShikohabad Junction (4)X  00:28+1:0000:30+1:012m23-517.485166mNCRDistrict Firozabad, Uttar Pradesh
44ETWEtawah (5)X  01:09+1:0401:11+1:092m33-462.070154mNCRDistt. Etawah, Uttar Pradesh
45BNTBharthana (3)XO  01:28+1:1301:30+1:162m--3-442.248147mNCRBharthana, Uttar Pradesh
46PHDPhaphund (4)X  02:15+5902:17+1:032m--3-405.836146mNCRdist. Auraiya, Uttar Pradesh
47CNBKanpur Central (10)  04:35+2904:45+3010m--3-322.750128mNCRKanpur, Uttar Pradesh
48ONUnnao Junction (5)X  05:06+4405:08+442m--3-305.242129mNRUnnao, Uttar Pradesh
49LJNLucknow Junction (6)X↵¶06:25+3406:50+3625m43-251.412126mNERLucknow, Uttar Pradesh
50LCLucknow City (3)  07:14+3707:16+392m--3-246.722127mNERLucknow, Uttar Pradesh
51BNZBadshahnagar (2)  07:33+3607:35+382m13-240.443116mNERLucknow, Uttar Pradesh
52GTNRGomti Nagar (3)  07:41+4107:43+412m13-236.145117mNERLucknow, Uttar Pradesh
53BBKBarabanki Junction (4)  08:10+4308:12+442m--3-215.858122mNRPin-225001, Uttar Pradesh
54BUWBurhwal Junction (3)  08:40+4708:42+482m--3-188.754119mNERBarabanki, Uttar Pradesh
55JLDJarwal Road (2)X  09:00+4809:02+492m--3-172.657112mNERBehraich, Uttar Pradesh
56CLJColonelGanj (2)X  09:20+5509:22+572m--3-155.433108mNERGonda, Uttar Pradesh
57GDGonda Junction (3)  10:15+4110:25+3910m23-126.573110mNERGonda 271001, Uttar Pradesh
58MURMankapur Junction (5)  10:48+4210:50+422m13-98.665104mNERDistrict Gonda, Uttar Pradesh
59MSWMaskanwa (2)  11:03+4211:05+422m--3-84.533103mNERChhapaiya Rd, Uttar Pradesh
60SNCSwami Narayan Chhapia (2)  11:13+4111:14+421m--3-80.2114100mNERS Narayan Chpla, Uttar Pradesh
61BVBabhnan (2)  11:20+4711:22+472m--3-68.866101mNERDistrict- Basti, Uttar Pradesh
62BSTBasti (4)  11:50+4411:55+435m--3-38.07790mNERBasti 272001, Uttar Pradesh
63KLDKhalilabad (3)  12:18+4612:20+462m--3-8.53686mNERKhalilabad- 272175, Uttar Pradesh
64MHH»Maghar (3)»  12:34+4212:36+422m--30.03383mNERNH 28. Distt- SantKabirNagar- 272173, Uttar Pradesh
65SWASahjanwa (2)X  12:51+3912:53+402m--38.32280mNERGorakhpur - 273209, Uttar Pradesh
66GKPGorakhpur Junction (10)  13:40+3213:55+3315m--325.44984mNERGorakhpur 273001, Uttar Pradesh
67PPCPipraichX  14:18+5814:20+592m--344.44785mNERGorakhpur Bypass, Uttar Pradesh
68CPJKaptanganj Junction  14:45+5414:50+535m--364.16189mNERCaptainganj, Uttar Pradesh
69SBZSiswa Bazar  15:16+5315:18+532m--390.63494mNERSiswa Bazar, Uttar Pradesh
70KZAKhada  15:43+4015:45+432m--3104.92298mNERKhadda Katai Bharpurva Bandh, Uttar Pradesh
71PNYAPaniahwa (2)X  16:03+3616:05+392m--3111.53096mNERPaniyahawa Railway Station, Uttar Pradesh
72BUGBagaha (2)X  16:49+5416:54+565m--3133.85793mECRBagaha, Bihar
73HIRHarinagarX  17:21+1:1017:23+1:142m--3159.44297mECRRamnagar, Bihar
74NKENarkatiaganj Junction (3)  17:45+1:1417:50+1:195m--3174.95089mECRNarkatiaganj, Bihar
75BTHBettiah (2)  18:34+1:2318:36+1:252m--3211.66579mECRBettiah, Bihar
76SGLSagauli (3)X  18:57+1:3418:59+1:372m--3234.46973mECRSugauli, Bihar
77BMKIBapudham Motihari (2)  19:17+1:4519:22+1:475m--3255.07172mECRMotihari, Bihar
78CAAChakia (1)X  19:49+2:0019:51+2:032m13287.04066mECRChakia, Bihar
79MAIMehsi (1)X  20:04+2:0120:06+2:032m13295.74064mECRMehsi, Bihar
80MTRMotipur (1)X  20:26+2:0420:28+2:102m13309.01962mECRRatanpura, Bihar
81MFP•Muzaffarpur Junction (6)•  21:50+1:41-23335.1-57mECRMuzaffarpur, Bihar
Scroll to Top
Scroll to Bottom